User: anonymous   Login
Location: Oroua River
(40.4333°S, 175.4333°E)
Time: 20:45:19
(UTC+00:00)
Language:

NOAA 16 DEB - Orbit

View from above orbital plane
View from above orbital plane
View from above satellite
View from above satellite

Ground track
Ground track

The orbit data is extracted from the following two-line orbital elements,

1 41257U 00055FH  24056.57885377  .00017901  00000-0  67394-2 0  9995
2 41257  98.9536 186.6366 0025547 281.5028  78.3285 14.31308840421435
Epoch (UTC): 25 February 2024 13:53:32
Eccentricity: 0.0025547
inclination: 98.9536°
perigee height: 769 km
apogee height: 805 km
right ascension of ascending node: 186.6366°
argument of perigee: 281.5028°
revolutions per day: 14.31308840
mean anomaly at epoch: 78.3285°
orbit number at epoch: 42143

The dashed part of the orbit path shows where the satellite is in the earth's shadow,  

DLR